Waarnemingen

Advertentie
Mijn weer
Oostende Airport, België (6407): temperatuur & dauwpunt: 16.01.2018 17:00:00 - 22.01.2018 17:00:00 (CET)Oostende Airport, België (6407): windsnelheid & windstoten: 16.01.2018 17:00:00 - 22.01.2018 17:00:00 (CET)Oostende Airport, België (6407): windrichting: 16.01.2018 17:00:00 - 22.01.2018 17:00:00 (CET)Oostende Airport, België (6407): luchtdruk: 16.01.2018 17:00:00 - 22.01.2018 17:00:00 (CET)Oostende Airport, België (6407): zicht: 16.01.2018 17:00:00 - 22.01.2018 17:00:00 (CET)
Datum & Tijd tt [°C] td [°C] ff [km/u] ff [kn] fx [km/u] fx [kn] dd ppp [hPa] vv [km]
22.01.2018 17:00:00 7,8 4,8 22 12 29 16 W 1014,4 20
22.01.2018 16:00:00 8,2 4,9 22 12 - - WNW 1013,3 20
22.01.2018 15:00:00 8,5 5,5 22 12 29 16 WNW 1011,8 20
22.01.2018 14:00:00 8,6 6,2 15 8 26 14 WNW 1011,0 20
22.01.2018 13:00:00 8,1 5,7 18 10 - - WNW 1010,3 15
22.01.2018 12:00:00 8,3 6,2 15 8 22 12 WNW 1009,8 15
22.01.2018 11:00:00 8,0 6,1 15 8 22 12 NW 1009,0 15
22.01.2018 10:00:00 7,9 6,1 11 6 - - NW 1008,1 10
22.01.2018 09:00:00 8,0 6,4 15 8 26 14 W 1007,5 9
22.01.2018 08:00:00 7,6 6,2 11 6 26 14 W 1007,6 10
22.01.2018 07:00:00 8,1 6,7 22 12 - - WZW 1006,9 10
22.01.2018 06:00:00 8,1 6,9 26 14 35 19 W 1007,1 10
22.01.2018 05:00:00 8,1 7,0 22 12 31 17 W 1006,6 8
22.01.2018 04:00:00 8,1 7,1 26 14 - - W 1006,9 6
22.01.2018 03:00:00 8,5 7,6 32 18 39 21 WZW 1006,3 7
22.01.2018 02:00:00 7,2 5,8 11 6 29 16 ZW 1006,2 4,0
22.01.2018 01:00:00 4,2 3,2 11 6 - - ZZW 1006,5 2,5
22.01.2018 00:00:00 3,6 2,5 18 10 31 17 Z 1006,6 4,0
21.01.2018 23:00:00 2,8 1,5 18 10 35 19 Z 1007,4 8
21.01.2018 22:00:00 2,5 1,3 26 14 - - ZZO 1008,1 9
21.01.2018 21:00:00 2,3 0,9 29 16 42 23 ZZO 1009,4 7
21.01.2018 20:00:00 2,3 0,9 29 16 46 25 ZZO 1011,0 6
21.01.2018 19:00:00 2,0 0,5 32 18 - - ZZO 1011,8 12
21.01.2018 18:00:00 1,6 0,2 26 14 35 19 ZZO 1013,3 12
21.01.2018 17:00:00 1,7 0,2 22 12 31 17 Z 1014,4 12
21.01.2018 16:00:00 2,2 0,5 18 10 - - Z 1015,2 12
21.01.2018 15:00:00 2,9 0,4 22 12 31 17 ZW 1015,9 12
21.01.2018 14:00:00 4,1 1,5 11 6 22 12 Z 1016,4 9
21.01.2018 13:00:00 4,1 2,1 14 8 - - ZZW 1016,7 9
21.01.2018 12:00:00 3,7 1,8 15 8 22 12 ZW 1017,0 9
21.01.2018 11:00:00 3,1 1,3 11 6 15 8 ZW 1017,0 13
21.01.2018 10:00:00 2,0 0,5 8 4 - - ZZW 1016,5 18
21.01.2018 09:00:00 3,3 0,4 4 2 11 6 WNW 1016,1 18
21.01.2018 08:00:00 3,9 0,4 8 4 18 10 NW 1015,4 15
21.01.2018 07:00:00 4,3 0,3 11 6 - - NW 1014,5 15
21.01.2018 06:00:00 4,1 0,4 18 10 29 16 NNW 1013,8 20
21.01.2018 05:00:00 4,6 1,3 22 12 35 19 NW 1013,1 20
21.01.2018 04:00:00 4,9 0,8 22 12 - - NNW 1012,3 20
21.01.2018 03:00:00 4,8 1,1 26 14 39 21 NNW 1011,4 15
21.01.2018 02:00:00 5,0 1,7 22 12 31 17 NNW 1010,3 15
21.01.2018 01:00:00 4,6 1,4 25 14 - - NNW 1008,8 10
21.01.2018 00:00:00 4,2 2,3 15 8 29 16 N 1007,3 10
20.01.2018 23:00:00 4,2 1,8 4 2 15 8 NNW 1005,9 15
20.01.2018 22:00:00 4,0 1,7 8 4 - - N 1004,5 15
20.01.2018 21:00:00 3,3 1,6 4 2 11 6 NO 1003,3 10
20.01.2018 20:00:00 3,3 1,7 8 4 11 6 NO 1001,8 7
20.01.2018 19:00:00 3,4 1,8 7 4 - - NO 1000,8 8
20.01.2018 18:00:00 3,6 1,9 4 2 11 6 ONO 1000,0 7
20.01.2018 17:00:00 3,7 1,9 8 4 15 8 O 999,3 8
20.01.2018 16:00:00 3,8 1,9 8 4 - - O 998,8 7
20.01.2018 15:00:00 3,7 1,9 11 6 18 10 OZO 998,6 6
20.01.2018 14:00:00 3,7 1,9 11 6 18 10 O 999,6 7
20.01.2018 13:00:00 3,8 1,9 7 4 - - OZO 1000,8 9
20.01.2018 12:00:00 3,6 2,0 11 6 18 10 ZO 1002,1 7
20.01.2018 11:00:00 3,5 2,0 11 6 29 16 Z 1003,0 7
20.01.2018 10:00:00 3,3 1,7 18 10 - - Z 1003,4 7
20.01.2018 09:00:00 2,9 1,2 15 8 22 12 Z 1004,2 10
20.01.2018 08:00:00 2,2 0,5 15 8 26 14 Z 1005,0 20
20.01.2018 07:00:00 1,3 -0,6 14 8 - - Z 1006,0 25
20.01.2018 06:00:00 0,8 -1,2 11 6 18 10 Z 1006,8 25
20.01.2018 05:00:00 0,7 -1,1 11 6 31 17 Z 1007,5 25
20.01.2018 04:00:00 4,3 0,8 26 14 - - W 1008,6 25
20.01.2018 03:00:00 4,4 0,7 22 12 35 19 WZW 1009,3 25
20.01.2018 02:00:00 4,6 0,9 26 14 35 19 W 1009,7 25
20.01.2018 01:00:00 4,6 0,9 22 12 - - WZW 1009,8 25
20.01.2018 00:00:00 4,6 0,5 26 14 42 23 W 1009,8 25
19.01.2018 23:00:00 5,4 0,3 31 17 46 25 W 1009,8 25
19.01.2018 22:00:00 5,5 0,2 35 19 - - W 1009,7 25
19.01.2018 21:00:00 5,7 0,8 29 16 39 21 W 1009,6 25
19.01.2018 20:00:00 5,5 -0,3 29 16 42 23 W 1009,6 25
19.01.2018 19:00:00 5,6 0,3 28 15 - - W 1009,7 10
19.01.2018 18:00:00 5,4 -0,7 31 17 43 23 W 1009,5 10
19.01.2018 17:00:00 5,0 0,0 28 15 - - W - 10
19.01.2018 16:00:00 5,4 1,0 29 16 - - W 1009,6 25
19.01.2018 15:00:00 6,0 1,3 29 16 39 21 WZW 1009,6 25
19.01.2018 14:00:00 6,0 1,0 26 14 - - WZW - 10
19.01.2018 13:00:00 6,1 1,3 18 10 - - WZW 1010,1 25
19.01.2018 12:00:00 5,3 1,0 18 10 29 16 WZW 1010,1 10
19.01.2018 11:00:00 5,1 1,0 21 11 31 17 W 1009,7 10
19.01.2018 10:00:00 5,0 1,0 22 12 - - W - 10
19.01.2018 09:00:00 4,6 0,8 21 11 31 17 W 1009,0 10
19.01.2018 08:00:00 4,1 0,9 22 12 35 19 W 1008,5 10
19.01.2018 07:00:00 4,6 1,0 26 14 - - WNW 1008,1 10
19.01.2018 06:00:00 4,4 1,1 29 16 46 25 W 1007,9 10
19.01.2018 05:00:00 4,8 1,2 34 18 46 25 W 1007,4 10
19.01.2018 04:00:00 5,0 1,2 37 20 - - W 1007,1 10
19.01.2018 03:00:00 5,3 1,0 39 21 54 29 WNW 1006,4 10
19.01.2018 02:00:00 4,8 1,2 39 21 54 29 WNW 1005,9 10
19.01.2018 01:00:00 5,6 1,0 35 19 - - WNW 1005,4 10
19.01.2018 00:00:00 5,5 0,8 41 22 57 31 WNW 1004,7 10
18.01.2018 23:00:00 5,9 2,2 34 18 57 31 WNW 1004,2 10
18.01.2018 22:00:00 5,7 2,6 26 14 - - W 1003,5 10
18.01.2018 21:00:00 5,1 1,7 34 18 50 27 WNW 1003,6 10
18.01.2018 20:00:00 4,8 2,3 22 12 50 27 WNW 1002,7 4,5
18.01.2018 19:00:00 4,6 2,1 11 6 - - ZW 1002,0 10
18.01.2018 18:00:00 5,5 2,3 11 6 26 14 ZW 1002,4 10
18.01.2018 17:00:00 7,2 2,7 18 10 29 16 W 1002,8 25
18.01.2018 16:00:00 7,2 2,5 22 12 - - W 1002,8 10
18.01.2018 15:00:00 7,2 2,0 29 16 50 27 W 1002,7 10
18.01.2018 14:00:00 7,2 1,5 35 19 61 33 W 1002,7 10
18.01.2018 13:00:00 7,7 2,2 40 21 - - W 1002,4 25
18.01.2018 12:00:00 7,2 2,1 39 21 72 39 WNW 1001,9 10
18.01.2018 11:00:00 7,2 1,8 54 29 94 51 W 1000,3 20
18.01.2018 10:00:00 7,8 1,9 65 35 - - W 997,9 10
18.01.2018 09:00:00 9,0 3,2 67 36 94 51 W 994,4 10
18.01.2018 08:00:00 9,6 6,0 67 36 100 54 WZW 992,2 10
18.01.2018 07:00:00 10,4 6,9 65 35 - - WZW 991,3 10
18.01.2018 06:00:00 10,3 7,6 48 26 76 41 WZW 991,6 10
18.01.2018 05:00:00 8,3 6,6 46 25 65 35 ZW 993,8 10
18.01.2018 04:00:00 5,9 4,5 42 23 - - ZZW 996,2 4,0
18.01.2018 03:00:00 5,1 3,3 35 19 57 31 ZZW 998,3 6
18.01.2018 02:00:00 4,4 3,0 26 14 39 21 Z 1002,0 6
18.01.2018 01:00:00 5,3 2,0 25 14 - - ZW 1004,9 12
18.01.2018 00:00:00 6,0 1,6 21 11 50 27 ZW 1006,7 10
17.01.2018 23:00:00 6,6 1,8 34 18 57 31 WZW 1007,8 10
17.01.2018 22:00:00 6,5 1,4 35 19 - - WZW 1008,3 10
17.01.2018 21:00:00 5,7 0,7 31 17 54 29 WZW 1008,6 10
17.01.2018 20:00:00 6,3 0,6 35 19 57 31 W 1008,8 10
17.01.2018 19:00:00 6,5 -0,6 41 22 - - W 1009,0 10
17.01.2018 18:00:00 6,3 0,0 35 19 57 31 W 1008,8 10
17.01.2018 17:00:00 6,5 0,1 41 22 61 33 W 1008,5 10
17.01.2018 16:00:00 6,5 0,6 46 25 - - W 1008,2 10
17.01.2018 15:00:00 6,4 -0,1 50 27 76 41 W 1007,1 10
17.01.2018 14:00:00 6,4 0,2 50 27 72 39 W 1006,3 10
17.01.2018 13:00:00 5,9 0,3 52 28 - - W 1005,9 10
17.01.2018 12:00:00 6,0 0,0 54 29 79 43 WNW 1004,6 10
17.01.2018 11:00:00 5,3 -0,1 46 25 72 39 WNW 1003,8 10
17.01.2018 10:00:00 5,0 -1,0 52 28 - - W - 10
17.01.2018 09:00:00 4,7 -1,3 48 26 72 39 W 1001,5 10
17.01.2018 08:00:00 4,6 -0,7 48 26 68 37 W 1000,4 10
17.01.2018 07:00:00 4,5 -1,0 46 25 - - W 999,3 10
17.01.2018 06:00:00 4,2 -2,0 54 29 72 39 W 998,2 10
17.01.2018 05:00:00 4,2 -1,6 52 28 72 39 W 997,3 10
17.01.2018 04:00:00 4,3 -1,0 48 26 - - W 996,6 10
17.01.2018 03:00:00 4,6 -1,0 52 28 65 35 W 995,7 10
17.01.2018 02:00:00 4,7 -0,8 46 25 65 35 W 994,9 10
17.01.2018 01:00:00 4,8 -1,0 39 21 - - W 994,9 10
17.01.2018 00:00:00 5,1 0,6 41 22 57 31 W 994,4 10
16.01.2018 23:00:00 5,5 1,2 35 19 50 27 W 993,7 10
16.01.2018 22:00:00 5,9 0,4 37 20 - - W 994,1 10
16.01.2018 21:00:00 6,0 1,3 29 16 46 25 WZW 994,5 10
16.01.2018 20:00:00 6,2 0,8 34 18 54 29 WZW 995,0 10
16.01.2018 19:00:00 6,2 -0,5 34 18 - - WZW 995,2 10
16.01.2018 18:00:00 6,0 0,1 35 19 50 27 W 995,6 10
16.01.2018 17:00:00 6,2 0,2 39 21 57 31 W 996,0 16

tt = temperatuur
td = dauwpunt
ff = windsnelheid
fx = windstoten
dd = windrichting
ppp = luchtdruk
vv = zicht

Weerstations in de omgeving